Regional Weather Roundup
Issued by NWS Green Bay, WI

Home | Current Version | Previous Version | Graphics & Text | Print | Product List | Glossary Off
Versions: 1 2 3 4 5 6 7 8 9 10 11 12 13 14 15 16 17 18 19 20 21 22 23 24 25 26 27 28 29 30 31 32 33 34 35 36 37 38 39 40 41 42 43 44 45 46 47 48 49 50

000
ASUS43 KGRB 082311
RWRGRB

NORTH-CENTRAL AND NORTHEAST WISCONSIN REGIONAL WEATHER ROUNDUP
NATIONAL WEATHER SERVICE GREEN BAY WI
500 PM CST THU DEC 08 2016

WIZ005-009-010>012-018-019-090000-
NORTH CENTRAL WISCONSIN

CITY           SKY/WX    TMP DP  RH WIND       PRES   REMARKS
IRONWOOD       FLURRIES  24  19  81 NW15      30.27R
MANITOWISH WTR LGT SNOW  21  20  96 NW10      30.23R WCI  10
ARBOR VITAE    FLURRIES  24  18  78 NW13G18   30.23R
EAGLE RIVER    CLEAR     22  15  74 NW12      30.20R
LAND O LAKES   LGT SNOW  23  19  86 NW7G16    30.21R
RHINELANDER    LGT SNOW  24  19  81 NW12G18   30.22R
PHILLIPS       CLOUDY    22  16  79 NW9       30.27R
ANTIGO         LGT SNOW  23  19  83 NW12G18   30.22R
TOMAHAWK       CLOUDY    24  16  74 NW8       30.25R
MERRILL        FLURRIES  23  18  81 NW8       30.26R
$$

WIZ013-073-090000-
NORTHEAST WISCONSIN

CITY           SKY/WX    TMP DP  RH WIND       PRES   REMARKS
IRON MOUNTAIN  PTCLDY    23  17  78 NW9       30.18R
MARINETTE      FLURRIES  29  20  69 NW8G17    30.22R
OCONTO         CLOUDY    27  24  87 NW7       30.23R VSB 1
$$

WIZ017-030-035>037-045-090000-
CENTRAL WISCONSIN

CITY           SKY/WX    TMP DP  RH WIND       PRES   REMARKS
MEDFORD        FLURRIES  22  16  78 NW12      30.27R WCI  10
WAUSAU         CLOUDY    23  16  74 NW15      30.26R
MOSINEE        MOCLDY    25  18  74 W10       30.28R
MARSHFIELD     MOCLDY    21  13  71 W13       30.29R WCI   9
WISC RAPIDS    CLOUDY    23  16  74 NW9       30.32R
STEVENS POINT  CLOUDY    22  13  69 W9        30.29R
WAUPACA        CLEAR     27  16  63 W13G20    30.28R
SHAWANO        CLOUDY    30  18  59 NW8       30.25R
CLINTONVILLE   CLOUDY    27  18  69 W14G20    30.26R
WAUTOMA        CLEAR     23  16  74 W10       30.31R
$$

WIZ038-039-048-051-090000-
FOX VALLEY

CITY           SKY/WX    TMP DP  RH WIND       PRES   REMARKS
NWS GREEN BAY  PTCLDY    30  19  63 W16       30.24R
APPLETON       MOCLDY    27  16  63 W17G24    30.23R
OSHKOSH        CLOUDY    25  16  68 W15       30.27R
FOND DU LAC    CLOUDY    25  15  66 W13       30.28R
$$

WIZ022-050-052-090000-
EAST CENTRAL WISCONSIN

CITY           SKY/WX    TMP DP  RH WIND       PRES   REMARKS
EPHRAIM        CLOUDY    30  22  72 N10G21    30.18R
WASHINGTON ISL MOCLDY    30  18  62 NW16G24   30.17R
STURGEON BAY   MOCLDY    30  22  72 NW13G22   30.21R
MANITOWOC      CLOUDY    29  18  63 W18G25    30.24R
SHEBOYGAN      CLEAR     26  17  68 W14       30.25R
$$

LMZ563-521-522-541>543-090000-
LAKESHORE

STATION/POSITION TIME  TEMP    WIND        PRES    VSBY  WAVE
                       AIR SEA DIR/SP/G                  HT/PER
                 (UTC) (F)     (DEG/KT/KT) (MB)    (MI)  (FT/S)
SHEBOYGAN LKSHOR 2300   27     280/ 15/ 19 1025.0R
KEWAUNEE LKSHORE 2248   30     290/ 11/ 15 1022.5R
ALGOMA MARINA    2236          300/ 11/ 16   N/A
NORTHPORT PIER   2240   33     320/ 19/ 24 1021.7R
SISTER BAY LKSHO 2250   31     320/ 22/ 26   N/A
CHAMBERS ISLAND  2240   32     320/ 17/ 20 1021.7R
MENOMINEE LKSHOR 2248   30     300/ 11/ 19 1022.0R
$$




USA.gov is the U.S. government's official web portal to all federal, state and local government web resources and services.